Back to catalog

THORAD DELTA 1 DEB

AliveSSO
NORAD 8144·DEBRIS·🇺🇸 United States

Launched Nov 15, 1974 from Vandenberg Space Force Base

Loading…

Next Passes (next 24 hours)

TLE

FreshSource: Space-Track

Epoch: Sep 13, 2026, 20:01 UTC

1 08144U 74089N   26256.83443969  .00000020  00000-0  39006-3 0  9995
2 08144 101.7724 208.1683 0151898  36.1472 350.8996 12.53941761370463

Track THORAD DELTA 1 DEB in real time with AllMySat

Download on the App Store